sat.trackr.live / text

‹ back to catalog

STARLINK-35794

NORAD 67085 · 2025-298L

PAYLOAD ACTIVE UNKNOWN

§ Identity

Operator
Country
US
Launch date
2025-12-14
Launch site
AFWTR
Launch vehicle
Mass (kg)
RCS (m²)

Purposes: comms

External: N2YO · Heavens-Above · Gunter

§ Orbital elements

Epoch: 2026-09-20T04:46:50.204352Z

Period
96.11 min
Inclination
70.0003°
Eccentricity
0.0003660
Mean motion
14.98340574 rev/d
Perigee alt
569.5 km
Apogee alt
574.6 km
Semi-major
6,950.2 km
B*
7.3847e-5
RAAN
244.0068°
Arg perigee
268.1868°
Mean anomaly
91.8872°
Rev number
4,235

§ Raw data

STARLINK-357941 67085U 25298L   26263.19919218  .00000788  00000+0  73847-4 0  99962 67085  70.0003 244.0068 0003660 268.1868  91.8872 14.98340574 42350

JSON: /api/v1/satellites/67085 · /tle

For live sub-satellite position, see the globe view (requires WebGL).

§ Visibility from observer

Set your observer location to see the next 7 days of passes ≥ 10°. The values pass through the URL so the page stays shareable.

No JS? Fill the form by hand. The geolocation button needs JavaScript.